Drummond Island, MI

8:16 PM EDT on June 24, 2017 (GMT -0400)
Drummond Island

Weather History for KDRM - January, 2013

Change the Weather History Date:

Saturday, January 26, 2013

  Actual Average (KCIU) Record (KCIU)
Temperature  
Mean Temperature 10 °F -  
Max Temperature 19 °F 24 °F 40 °F (1981)
Min Temperature 0 °F 4 °F -18 °F (1997)
Degree Days  
Heating Degree Days 56    
Moisture  
Dew Point 7 °F    
Average Humidity 87    
Maximum Humidity 94    
Minimum Humidity 74    
Precipitation  
Precipitation 0.00 in - - ()
Sea Level Pressure  
Sea Level Pressure 30.23 in    
Wind  
Wind Speed 2 mph (NNE)    
Max Wind Speed 6 mph    
Max Gust Speed -    
Visibility 9 miles    
Events Snow    
Averages and records for this station are not official NWS values.
T = Trace of Precipitation, MM = Missing Value Source: NWS Daily Summary

Daily Weather History Graph

Daily Weather History Graph

Search for Another Location

Airport or City:

Trip Planner

Search our weather history database for the weather conditions in past years. The results will help you decide how hot, cold, wet, or windy it might be!

Date:

Astronomy

Jan. 26, 2013 Rise Set
Actual Time 8:03 AM EST 5:31 PM EST
Civil Twilight 7:31 AM EST 6:04 PM EST
Nautical Twilight 6:55 AM EST 6:40 PM EST
Astronomical Twilight 6:19 AM EST 7:15 PM EST
Moon 5:28 PM EST (1/26) 7:19 AM EST (1/26)
Length of Visible Light 10h 33m
Length of Day
9h 28m
Full, 100% of the Moon is Illuminated
Jan 26
Full
Jan 26
Full
Feb 3
Last Quarter
Feb 10
New
Feb 17
First Quarter

Hourly Weather History & Observations

Time (EST) Temp. Windchill Dew Point Humidity Pressure Visibility Wind Dir Wind Speed Gust Speed Precip Events Conditions
12:15 AM 12.7 °F 6.7 °F 10.4 °F 90% 30.02 in 3.0 mi ENE 3.5 mph - N/A Snow Light Snow
12:36 AM 12.4 °F 4.6 °F 10.2 °F 91% 30.02 in 4.0 mi ENE 4.6 mph - N/A Snow Light Snow
12:56 AM 12.2 °F 6.1 °F 10.0 °F 91% 30.02 in 3.0 mi ENE 3.5 mph - N/A Snow Light Snow
1:15 AM 12.2 °F 4.3 °F 10.0 °F 91% 30.02 in 4.0 mi NE 4.6 mph - N/A Snow Light Snow
1:36 AM 12.2 °F - 9.9 °F 90% 30.03 in 3.0 mi Calm Calm - N/A Snow Light Snow
1:55 AM 12.0 °F 5.9 °F 9.5 °F 90% 30.03 in 4.0 mi NE 3.5 mph - N/A Snow Light Snow
2:15 AM 12.0 °F 4.1 °F 9.5 °F 90% 30.04 in 4.0 mi ENE 4.6 mph - N/A Snow Light Snow
2:36 AM 12.0 °F 4.1 °F 9.5 °F 90% 30.04 in 5.0 mi NE 4.6 mph - N/A Snow Light Snow
2:55 AM 12.2 °F 6.1 °F 9.5 °F 89% 30.06 in 3.0 mi NE 3.5 mph - N/A Snow Light Snow
3:15 AM 12.2 °F 4.3 °F 9.7 °F 90% 30.06 in 4.0 mi NE 4.6 mph - N/A Snow Light Snow
3:36 AM 11.8 °F - 9.3 °F 90% 30.06 in 5.0 mi Calm Calm - N/A Snow Light Snow
3:55 AM 12.0 °F - 9.5 °F 90% 30.07 in 7.0 mi Calm Calm - N/A Snow Light Snow
4:16 AM 12.0 °F - 9.9 °F 91% 30.07 in 10.0 mi Calm Calm - N/A   Overcast
4:36 AM 12.0 °F 5.9 °F 10.0 °F 92% 30.07 in 10.0 mi NNE 3.5 mph - N/A   Overcast
4:55 AM 12.0 °F 5.9 °F 9.9 °F 91% 30.08 in 10.0 mi NNE 3.5 mph - N/A   Overcast
5:16 AM 11.8 °F - 9.5 °F 90% 30.09 in 10.0 mi Calm Calm - N/A   Overcast
5:36 AM 11.3 °F - 9.1 °F 91% 30.09 in 10.0 mi Calm Calm - N/A   Overcast
5:55 AM 10.4 °F - 8.6 °F 92% 30.10 in 10.0 mi Calm Calm - N/A   Overcast
6:16 AM 10.2 °F 3.8 °F 8.4 °F 92% 30.12 in 10.0 mi North 3.5 mph - N/A   Overcast
6:36 AM 9.3 °F - 7.3 °F 92% 30.13 in 10.0 mi Calm Calm - N/A   Overcast
6:55 AM 7.0 °F - 5.2 °F 92% 30.13 in 10.0 mi Calm Calm - N/A   Overcast
7:16 AM 6.8 °F - 5.4 °F 94% 30.14 in 10.0 mi Calm Calm - N/A   Scattered Clouds
7:35 AM 6.8 °F - 5.0 °F 92% 30.15 in 10.0 mi Calm Calm - N/A   Clear
7:55 AM 3.6 °F - 1.6 °F 91% 30.15 in 10.0 mi Calm Calm - N/A   Clear
8:15 AM 3.9 °F - 1.9 °F 91% 30.16 in 10.0 mi Calm Calm - N/A   Clear
8:35 AM 3.9 °F - 1.8 °F 91% 30.17 in 10.0 mi Calm Calm - N/A   Clear
8:56 AM 4.1 °F - 1.9 °F 91% 30.18 in 10.0 mi Calm Calm - N/A   Clear
9:15 AM 8.2 °F 1.6 °F 6.3 °F 92% 30.19 in 10.0 mi North 3.5 mph - N/A   Clear
9:35 AM 8.8 °F 2.2 °F 6.8 °F 92% 30.20 in 10.0 mi North 3.5 mph - N/A   Clear
9:56 AM 9.7 °F 3.2 °F 7.7 °F 92% 30.22 in 10.0 mi North 3.5 mph - N/A   Clear
10:15 AM 10.4 °F 4.0 °F 8.6 °F 92% 30.23 in 10.0 mi North 3.5 mph - N/A   Clear
10:36 AM 11.3 °F 1.9 °F 9.3 °F 92% 30.24 in 10.0 mi North 5.8 mph - N/A   Clear
10:55 AM 11.7 °F 3.7 °F 9.7 °F 92% 30.25 in 10.0 mi North 4.6 mph - N/A   Clear
11:16 AM 12.7 °F 3.6 °F 9.0 °F 85% 30.25 in 10.0 mi North 5.8 mph - N/A   Clear
11:55 AM 13.8 °F 8.0 °F 9.0 °F 81% 30.28 in 10.0 mi NNW 3.5 mph - N/A   Clear
12:16 PM 14.9 °F 9.2 °F 9.9 °F 80% 30.28 in 10.0 mi NNW 3.5 mph - N/A   Clear
12:36 PM 15.8 °F 10.2 °F 10.4 °F 79% 30.28 in 10.0 mi North 3.5 mph - N/A   Clear
12:55 PM 16.9 °F 9.8 °F 11.1 °F 78% 30.27 in 10.0 mi North 4.6 mph - N/A   Clear
1:16 PM 17.6 °F 12.3 °F 11.7 °F 78% 30.27 in 10.0 mi North 3.5 mph - N/A   Clear
1:36 PM 18.1 °F - 11.8 °F 76% 30.27 in 10.0 mi Calm Calm - N/A   Clear
1:55 PM 18.9 °F - 12.2 °F 75% 30.28 in 10.0 mi Calm Calm - N/A   Clear
2:16 PM 18.9 °F - 12.2 °F 75% 30.28 in 10.0 mi Calm Calm - N/A   Clear
2:35 PM 19.4 °F 14.3 °F 12.2 °F 74% 30.29 in 10.0 mi North 3.5 mph - N/A   Clear
2:55 PM 19.4 °F - 12.2 °F 74% 30.29 in 10.0 mi Calm Calm - N/A   Clear
3:16 PM 19.0 °F - 11.8 °F 74% 30.30 in 10.0 mi Calm Calm - N/A   Clear
3:35 PM 18.9 °F - 11.8 °F 74% 30.31 in 10.0 mi Calm Calm - N/A   Clear
3:55 PM 18.5 °F - 11.8 °F 75% 30.31 in 10.0 mi Calm Calm - N/A   Clear
4:15 PM 18.1 °F - 11.5 °F 75% 30.32 in 10.0 mi Calm Calm - N/A   Clear
4:35 PM 19.2 °F - 12.0 °F 74% 30.32 in 10.0 mi Calm Calm - N/A   Clear
4:56 PM 18.3 °F - 12.6 °F 78% 30.32 in 10.0 mi Calm Calm - N/A   Clear
5:15 PM 16.0 °F - 12.6 °F 86% 30.32 in 10.0 mi Calm Calm - N/A   Clear
5:35 PM 13.5 °F - 11.1 °F 90% 30.33 in 10.0 mi Calm Calm - N/A   Clear
5:56 PM 11.5 °F - 9.9 °F 93% 30.33 in 10.0 mi Calm Calm - N/A   Clear
6:15 PM 10.6 °F - 8.8 °F 92% 30.34 in 10.0 mi Calm Calm - N/A   Clear
6:36 PM 10.0 °F - 8.4 °F 93% 30.34 in 10.0 mi Calm Calm - N/A   Clear
6:56 PM 6.8 °F - 4.6 °F 91% 30.35 in 10.0 mi Calm Calm - N/A   Clear
7:15 PM 5.9 °F - 3.9 °F 92% 30.35 in 10.0 mi Calm Calm - N/A   Clear
7:36 PM 5.2 °F - 3.0 °F 91% 30.35 in 10.0 mi Calm Calm - N/A   Clear
7:56 PM 5.4 °F - 3.4 °F 92% 30.35 in 10.0 mi Calm Calm - N/A   Clear
8:15 PM 4.6 °F - 2.3 °F 90% 30.35 in 10.0 mi Calm Calm - N/A   Clear
8:36 PM 4.8 °F - 2.5 °F 90% 30.36 in 10.0 mi Calm Calm - N/A   Clear
8:55 PM 2.1 °F - -0.4 °F 89% 30.36 in 10.0 mi Calm Calm - N/A   Clear
9:16 PM 1.8 °F - -1.1 °F 88% 30.36 in 10.0 mi Calm Calm - N/A   Clear
9:36 PM 0.9 °F - -1.8 °F 88% 30.36 in 10.0 mi Calm Calm - N/A   Clear
9:55 PM 0.1 °F - -2.7 °F 88% 30.36 in 10.0 mi Calm Calm - N/A   Clear
10:16 PM -0.2 °F - -2.9 °F 88% 30.36 in 10.0 mi Calm Calm - N/A   Clear
10:35 PM 1.0 °F - -1.7 °F 88% 30.36 in 10.0 mi Calm Calm - N/A   Clear
10:55 PM 2.5 °F - 0.1 °F 90% 30.36 in 10.0 mi Calm Calm - N/A   Clear
11:15 PM 3.7 °F -3.6 °F 1.6 °F 91% 30.38 in 10.0 mi ESE 3.5 mph - N/A   Clear
11:35 PM 5.0 °F - 2.7 °F 90% 30.38 in 10.0 mi Calm Calm - N/A   Mostly Cloudy
11:56 PM 12.7 °F - 11.3 °F 94% 30.38 in 10.0 mi Calm Calm - N/A   Overcast